Darstellungsparameter: Aktuell verwendete Einstellungen:
Skalierung der Graphiken ... ?
xyx+y,   Skalierungsfaktor:      Skalierung: Modus: x, Faktor: 1
Darstellungszeitraum ... ?
Vom - - bis: - -   Zeitraum: 13.09.2010 - 13.10.2010
Min/Max/Avg-Anzeige ... ?
Zeige MMA aktuell
Zeige MMA Monat
Zeige MMA alles
Zeige --A aktuell
Zeige --A Monat
Zeige --A alles
Keine MMA-Anzeige
MMA:
Average (ber die Originaldaten)
MMA-Basis: 13.09.2010 - 13.10.2010
Quicknavigation für Darstellung... ?
Tage:      1T, 2T, 3T, 5T -1T -2T -3T -5T +1T +2T +3T +5T
Wochen: 1W, 2W, 3W -1W -2W -3W +1W +2W +3W
Monate: 1M, 3M, 6M -1M -3M -6M +1M +3M +6M
Jahre:    1J, 3J, 5J, 10J -1J -3J -5J -10J +1J +3J +5J +10J
Nutze für die Darstellung ... ?
Originaldaten oder ...
Mittelwerte Minima Maxima auf...
Stundenbasis Tagesbasis Wochenbasis
Monatsbasis Jahresbasis      Datenbasis: Mittelwerte auf Stundenbasis
Darstellen als:
Statistik (Auto) Statistik J:M      Darstellung:
Zur Graphik,    zurück zur Übersicht aller Sensoren.
 
Tabellarische Datenbersicht: ?
 
Sensor: Nr:Datum:Temp:Abs-Feuchte:Windchill:Wind:
Aussen-T/F 1 13-09-2010 00:00:00 13.68 C 11 g/m*3 13.68 C 0 km/h
2 13-09-2010 01:00:00 13.7 C 11.01 g/m*3 13.7 C 0 km/h
3 13-09-2010 02:00:00 13.52 C 10.89 g/m*3 13.52 C 0 km/h
4 13-09-2010 03:00:00 13.26 C 10.58 g/m*3 13.26 C 0 km/h
5 13-09-2010 04:00:00 13 C 10.21 g/m*3 13 C 0 km/h
6 13-09-2010 05:00:00 13.26 C 9.77 g/m*3 13.26 C 0 km/h
7 13-09-2010 06:00:00 13.3 C 9.57 g/m*3 13.3 C 0 km/h
8 13-09-2010 07:00:00 12.72 C 9.18 g/m*3 12.72 C 0 km/h
9 13-09-2010 08:00:00 13.04 C 9.62 g/m*3 13.04 C 0 km/h
10 13-09-2010 09:00:00 13.98 C 9.47 g/m*3 13.98 C 0 km/h
11 13-09-2010 10:00:00 15.32 C 9.05 g/m*3 15.32 C 0 km/h
12 13-09-2010 11:00:00 16.5 C 8.57 g/m*3 16.5 C 0 km/h
13 13-09-2010 12:00:00 17.24 C 7.93 g/m*3 17.24 C 0 km/h
14 13-09-2010 13:00:00 18.94 C 7.53 g/m*3 18.94 C 0 km/h
15 13-09-2010 14:00:00 20.18 C 6.95 g/m*3 20.18 C 0 km/h
16 13-09-2010 15:00:00 20.8 C 7.1 g/m*3 20.8 C 0 km/h
17 13-09-2010 16:00:00 21.56 C 6.93 g/m*3 21.56 C 0 km/h
18 13-09-2010 17:00:00 20.48 C 7.96 g/m*3 20.48 C 0 km/h
19 13-09-2010 18:00:00 18.22 C 8.62 g/m*3 18.22 C 0 km/h
20 13-09-2010 19:00:00 16.92 C 8.55 g/m*3 16.92 C 0 km/h
21 13-09-2010 20:00:00 15.24 C 8.9 g/m*3 15.24 C 0 km/h
22 13-09-2010 21:00:00 14.52 C 8.97 g/m*3 14.52 C 0 km/h
23 13-09-2010 22:00:00 13.7 C 8.86 g/m*3 13.7 C 0 km/h
24 13-09-2010 23:00:00 13.14 C 8.85 g/m*3 13.14 C 0 km/h
25 14-09-2010 00:00:00 12.82 C 9.2 g/m*3 12.82 C 0 km/h
Sensor: Nr:Datum:Temp:Abs-Feuchte:Windchill:Wind:
Aussen-T/F 26 14-09-2010 01:00:00 12.8 C 9.27 g/m*3 12.8 C 0 km/h
27 14-09-2010 02:00:00 13.1 C 9.33 g/m*3 13.1 C 0 km/h
28 14-09-2010 03:00:00 13.36 C 9.23 g/m*3 13.36 C 0 km/h
29 14-09-2010 04:00:00 12.94 C 9.42 g/m*3 12.94 C 0 km/h
30 14-09-2010 05:00:00 12.96 C 9.84 g/m*3 12.96 C 0 km/h
31 14-09-2010 06:00:00 13.9 C 9.28 g/m*3 13.9 C 0 km/h
32 14-09-2010 07:00:00 14.06 C 8.93 g/m*3 14.06 C 0 km/h
33 14-09-2010 08:00:00 14.1 C 9.32 g/m*3 14.1 C 0 km/h
34 14-09-2010 09:00:00 15.16 C 9.06 g/m*3 15.16 C 0 km/h
35 14-09-2010 10:00:00 16.1 C 9.07 g/m*3 16.1 C 0 km/h
36 14-09-2010 11:00:00 17.06 C 9.15 g/m*3 17.06 C 0 km/h
37 14-09-2010 12:00:00 18.44 C 9.18 g/m*3 18.44 C 0 km/h
38 14-09-2010 13:00:00 19.98 C 9.22 g/m*3 19.98 C 0 km/h
39 14-09-2010 14:00:00 19.66 C 8.84 g/m*3 19.66 C 0 km/h
40 14-09-2010 15:00:00 20.4 C 8.63 g/m*3 20.4 C 0 km/h
41 14-09-2010 16:00:00 20.68 C 7.88 g/m*3 20.68 C 0 km/h
42 14-09-2010 17:00:00 20.14 C 7.46 g/m*3 20.14 C 0 km/h
43 14-09-2010 18:00:00 19.34 C 7.81 g/m*3 19.34 C 0 km/h
44 14-09-2010 19:00:00 18.8 C 7.73 g/m*3 18.8 C 0 km/h
45 14-09-2010 20:00:00 18.6 C 7.7 g/m*3 18.6 C 0 km/h
46 14-09-2010 21:00:00 18.54 C 7.77 g/m*3 18.54 C 0 km/h
47 14-09-2010 22:00:00 18.5 C 7.83 g/m*3 18.5 C 0 km/h
48 14-09-2010 23:00:00 18.22 C 7.91 g/m*3 18.22 C 0 km/h
49 15-09-2010 00:00:00 18.02 C 7.87 g/m*3 18.02 C 0 km/h
50 15-09-2010 01:00:00 18.18 C 7.67 g/m*3 18.18 C 0 km/h
Sensor: Nr:Datum:Temp:Abs-Feuchte:Windchill:Wind:
Aussen-T/F 51 15-09-2010 02:00:00 18.32 C 7.64 g/m*3 18.32 C 0 km/h
52 15-09-2010 03:00:00 18.06 C 8.23 g/m*3 18.06 C 0 km/h
53 15-09-2010 04:00:00 17.7 C 9.11 g/m*3 17.7 C 0 km/h
54 15-09-2010 05:00:00 15 C 9.75 g/m*3 15 C 0 km/h
55 15-09-2010 06:00:00 12.78 C 10.09 g/m*3 12.78 C 0 km/h
56 15-09-2010 07:00:00 12.74 C 10.29 g/m*3 12.74 C 0 km/h
57 15-09-2010 08:00:00 12.7 C 10.35 g/m*3 12.7 C 0 km/h
58 15-09-2010 09:00:00 12.92 C 10.36 g/m*3 12.92 C 0 km/h
59 15-09-2010 10:00:00 14.06 C 9.95 g/m*3 14.06 C 0 km/h
60 15-09-2010 11:00:00 15.02 C 8.86 g/m*3 15.02 C 0 km/h
61 15-09-2010 12:00:00 16.5 C 7.02 g/m*3 16.5 C 0 km/h
62 15-09-2010 13:00:00 17.24 C 6.31 g/m*3 17.24 C 0 km/h
63 15-09-2010 14:00:00 18.38 C 5.66 g/m*3 18.38 C 0 km/h
64 15-09-2010 15:00:00 19.52 C 5.75 g/m*3 19.52 C 0 km/h
65 15-09-2010 16:00:00 19.52 C 5.98 g/m*3 19.52 C 0 km/h
66 15-09-2010 17:00:00 19.68 C 5.8 g/m*3 19.68 C 0 km/h
67 15-09-2010 18:00:00 17.84 C 5.32 g/m*3 17.84 C 0 km/h
68 15-09-2010 19:00:00 16.6 C 5.65 g/m*3 16.6 C 0 km/h
69 15-09-2010 20:00:00 15.84 C 6.26 g/m*3 15.84 C 0 km/h
70 15-09-2010 21:00:00 15.18 C 6.38 g/m*3 15.18 C 0 km/h
71 15-09-2010 22:00:00 14.96 C 5.96 g/m*3 14.96 C 0 km/h
72 15-09-2010 23:00:00 14.86 C 5.64 g/m*3 14.86 C 0 km/h
73 16-09-2010 00:00:00 14.18 C 5.9 g/m*3 14.18 C 0 km/h
74 16-09-2010 01:00:00 14.1 C 5.41 g/m*3 14.1 C 0 km/h
75 16-09-2010 02:00:00 13.94 C 5.79 g/m*3 13.94 C 0 km/h
Sensor: Nr:Datum:Temp:Abs-Feuchte:Windchill:Wind:
Aussen-T/F 76 16-09-2010 03:00:00 13.84 C 6.71 g/m*3 13.84 C 0 km/h
77 16-09-2010 04:00:00 13.58 C 6.98 g/m*3 13.58 C 0 km/h
78 16-09-2010 05:00:00 13.36 C 7.26 g/m*3 13.36 C 0 km/h
79 16-09-2010 06:00:00 12.44 C 8.08 g/m*3 12.44 C 0 km/h
80 16-09-2010 07:00:00 11.78 C 8.68 g/m*3 11.78 C 0 km/h
81 16-09-2010 08:00:00 11.86 C 8.83 g/m*3 11.86 C 0 km/h
82 16-09-2010 09:00:00 12.64 C 9.25 g/m*3 12.64 C 0 km/h
83 16-09-2010 10:00:00 14.12 C 8.65 g/m*3 14.12 C 0 km/h
84 16-09-2010 11:00:00 15.26 C 8.23 g/m*3 15.26 C 0 km/h
85 16-09-2010 12:00:00 17.02 C 7.68 g/m*3 17.02 C 0 km/h
86 16-09-2010 13:00:00 17.32 C 7.17 g/m*3 17.32 C 0 km/h
87 16-09-2010 14:00:00 15.28 C 8.71 g/m*3 15.28 C 0 km/h
88 16-09-2010 15:00:00 17.22 C 9.15 g/m*3 17.22 C 0 km/h
89 16-09-2010 16:00:00 16.36 C 8.49 g/m*3 16.36 C 0 km/h
90 16-09-2010 17:00:00 15.3 C 9.51 g/m*3 15.3 C 0 km/h
91 16-09-2010 18:00:00 14.9 C 8.95 g/m*3 14.9 C 0 km/h
92 16-09-2010 19:00:00 13.42 C 9.68 g/m*3 13.42 C 0 km/h
93 16-09-2010 20:00:00 12.84 C 10.02 g/m*3 12.84 C 0 km/h
94 16-09-2010 21:00:00 12.62 C 10.08 g/m*3 12.62 C 0 km/h
95 16-09-2010 22:00:00 12.2 C 9.58 g/m*3 12.2 C 0 km/h
96 16-09-2010 23:00:00 12.1 C 9.29 g/m*3 12.1 C 0 km/h
97 17-09-2010 00:00:00 12.16 C 9.24 g/m*3 12.16 C 0 km/h
98 17-09-2010 01:00:00 12.06 C 9.26 g/m*3 12.06 C 0 km/h
99 17-09-2010 02:00:00 11.96 C 9.29 g/m*3 11.96 C 0 km/h
100 17-09-2010 03:00:00 12.06 C 8.94 g/m*3 12.06 C 0 km/h
Sensor: Nr:Datum:Temp:Abs-Feuchte:Windchill:Wind:
Aussen-T/F 101 17-09-2010 04:00:00 11.94 C 8.73 g/m*3 11.94 C 0 km/h
102 17-09-2010 05:00:00 11.2 C 8.23 g/m*3 11.2 C 0 km/h
103 17-09-2010 06:00:00 10.6 C 8.59 g/m*3 10.6 C 0 km/h
104 17-09-2010 07:00:00 10.02 C 8.15 g/m*3 10.02 C 0 km/h
105 17-09-2010 08:00:00 10.22 C 7.66 g/m*3 10.22 C 0 km/h
106 17-09-2010 09:00:00 10.86 C 7.28 g/m*3 10.86 C 0 km/h
107 17-09-2010 10:00:00 12.06 C 7.55 g/m*3 12.06 C 0 km/h
108 17-09-2010 11:00:00 13.72 C 7.56 g/m*3 13.72 C 0 km/h
109 17-09-2010 12:00:00 15.7 C 6.58 g/m*3 15.7 C 0 km/h
110 17-09-2010 13:00:00 16.66 C 5.9 g/m*3 16.66 C 0 km/h
111 17-09-2010 14:00:00 17.62 C 5.29 g/m*3 17.62 C 0 km/h
112 17-09-2010 15:00:00 17.48 C 5.06 g/m*3 17.48 C 0 km/h
113 17-09-2010 16:00:00 19.06 C 4.94 g/m*3 19.06 C 0 km/h
114 17-09-2010 17:00:00 19.46 C 4.45 g/m*3 19.46 C 0 km/h
115 17-09-2010 18:00:00 16.66 C 6.1 g/m*3 16.66 C 0 km/h
116 17-09-2010 19:00:00 15.24 C 6.69 g/m*3 15.24 C 0 km/h
117 17-09-2010 20:00:00 14.26 C 7.06 g/m*3 14.26 C 0 km/h
118 17-09-2010 21:00:00 13.48 C 7.15 g/m*3 13.48 C 0 km/h
119 17-09-2010 22:00:00 13.34 C 6.72 g/m*3 13.34 C 0 km/h
120 17-09-2010 23:00:00 12.58 C 6.81 g/m*3 12.58 C 0 km/h
121 18-09-2010 00:00:00 12.12 C 6.94 g/m*3 12.12 C 0 km/h
122 18-09-2010 01:00:00 10.9 C 7 g/m*3 10.9 C 0 km/h
123 18-09-2010 02:00:00 10 C 7.2 g/m*3 10 C 0 km/h
124 18-09-2010 03:00:00 9.38 C 7.3 g/m*3 9.38 C 0 km/h
125 18-09-2010 04:00:00 8.54 C 7.19 g/m*3 8.54 C 0 km/h
Sensor: Nr:Datum:Temp:Abs-Feuchte:Windchill:Wind:
Aussen-T/F 126 18-09-2010 05:00:00 7.94 C 7.18 g/m*3 7.94 C 0 km/h
127 18-09-2010 06:00:00 7.62 C 7.36 g/m*3 7.62 C 0 km/h
128 18-09-2010 07:00:00 7.5 C 7.3 g/m*3 7.5 C 0 km/h
129 18-09-2010 08:00:00 7.46 C 7.23 g/m*3 7.46 C 0 km/h
130 18-09-2010 09:00:00 8.12 C 7.55 g/m*3 8.12 C 0 km/h
131 18-09-2010 10:00:00 10.2 C 8.18 g/m*3 10.2 C 0 km/h
132 18-09-2010 11:00:00 13.46 C 6.65 g/m*3 13.46 C 0 km/h
133 18-09-2010 12:00:00 15.14 C 5.92 g/m*3 15.14 C 0 km/h
134 18-09-2010 13:00:00 15.6 C 5.43 g/m*3 15.6 C 0 km/h
135 18-09-2010 14:00:00 15.26 C 4.77 g/m*3 15.26 C 0 km/h
136 18-09-2010 15:00:00 16.3 C 4.58 g/m*3 16.3 C 0 km/h
137 18-09-2010 16:00:00 16.22 C 4.86 g/m*3 16.22 C 0 km/h
138 18-09-2010 17:00:00 15.86 C 5.73 g/m*3 15.86 C 0 km/h
139 18-09-2010 18:00:00 15.66 C 6.06 g/m*3 15.66 C 0 km/h
140 18-09-2010 19:00:00 13.26 C 6.08 g/m*3 13.26 C 0 km/h
141 18-09-2010 20:00:00 11.08 C 6.6 g/m*3 11.08 C 0 km/h
142 18-09-2010 21:00:00 10.02 C 6.62 g/m*3 10.02 C 0 km/h
143 18-09-2010 22:00:00 8.98 C 6.69 g/m*3 8.98 C 0 km/h
144 18-09-2010 23:00:00 8.2 C 6.77 g/m*3 8.2 C 0 km/h
145 19-09-2010 00:00:00 7.56 C 6.72 g/m*3 7.56 C 0 km/h
146 19-09-2010 01:00:00 6.92 C 6.54 g/m*3 6.92 C 0 km/h
147 19-09-2010 02:00:00 6.44 C 6.53 g/m*3 6.44 C 0 km/h
148 19-09-2010 03:00:00 6.42 C 6.57 g/m*3 6.42 C 0 km/h
149 19-09-2010 04:00:00 6.2 C 6.5 g/m*3 6.2 C 0 km/h
150 19-09-2010 05:00:00 6.04 C 6.42 g/m*3 6.04 C 0 km/h
Sensor: Nr:Datum:Temp:Abs-Feuchte:Windchill:Wind:
Aussen-T/F 151 19-09-2010 06:00:00 5.76 C 6.33 g/m*3 5.76 C 0 km/h
152 19-09-2010 07:00:00 6 C 6.46 g/m*3 6 C 0 km/h
153 19-09-2010 08:00:00 6.96 C 6.79 g/m*3 6.96 C 0 km/h
154 19-09-2010 09:00:00 8.12 C 6.98 g/m*3 8.12 C 0 km/h
155 19-09-2010 10:00:00 10.72 C 6.69 g/m*3 10.72 C 0 km/h
156 19-09-2010 11:00:00 12.92 C 6.27 g/m*3 12.92 C 0 km/h
157 19-09-2010 12:00:00 14.94 C 5.67 g/m*3 14.94 C 0 km/h
158 19-09-2010 13:00:00 16.12 C 5.54 g/m*3 16.12 C 0 km/h
159 19-09-2010 14:00:00 17.38 C 5.68 g/m*3 17.38 C 0 km/h
160 19-09-2010 15:00:00 18.62 C 5.45 g/m*3 18.62 C 0 km/h
161 19-09-2010 16:00:00 19.04 C 5.29 g/m*3 19.04 C 0 km/h
162 19-09-2010 17:00:00 18.78 C 5.69 g/m*3 18.78 C 0 km/h
163 19-09-2010 18:00:00 17.08 C 5.99 g/m*3 17.08 C 0 km/h
164 19-09-2010 19:00:00 15.78 C 5.97 g/m*3 15.78 C 0 km/h
165 19-09-2010 20:00:00 14.46 C 6.3 g/m*3 14.46 C 0 km/h
166 19-09-2010 21:00:00 13.96 C 6.62 g/m*3 13.96 C 0 km/h
167 19-09-2010 22:00:00 13.32 C 6.78 g/m*3 13.32 C 0 km/h
168 19-09-2010 23:00:00 12.28 C 6.77 g/m*3 12.28 C 0 km/h
169 20-09-2010 00:00:00 11.68 C 6.87 g/m*3 11.68 C 0 km/h
170 20-09-2010 01:00:00 10.44 C 6.78 g/m*3 10.44 C 0 km/h
171 20-09-2010 02:00:00 9.84 C 6.88 g/m*3 9.84 C 0 km/h
172 20-09-2010 03:00:00 9.64 C 7.02 g/m*3 9.64 C 0 km/h
173 20-09-2010 04:00:00 8.98 C 6.89 g/m*3 8.98 C 0 km/h
174 20-09-2010 05:00:00 8.32 C 6.89 g/m*3 8.32 C 0 km/h
175 20-09-2010 06:00:00 8.48 C 7.03 g/m*3 8.48 C 0 km/h
Sensor: Nr:Datum:Temp:Abs-Feuchte:Windchill:Wind:
Aussen-T/F 176 20-09-2010 07:00:00 8.52 C 7.1 g/m*3 8.52 C 0 km/h
177 20-09-2010 08:00:00 9.18 C 6.87 g/m*3 9.18 C 0 km/h
178 20-09-2010 09:00:00 9.84 C 6.92 g/m*3 9.84 C 0 km/h
179 20-09-2010 10:00:00 12.4 C 7.21 g/m*3 12.4 C 0 km/h
180 20-09-2010 11:00:00 14.62 C 6.99 g/m*3 14.62 C 0 km/h
181 20-09-2010 12:00:00 16.26 C 6.34 g/m*3 16.26 C 0 km/h
182 20-09-2010 13:00:00 18.02 C 6.12 g/m*3 18.02 C 0 km/h
183 20-09-2010 14:00:00 20.02 C 5.81 g/m*3 20.02 C 0 km/h
184 20-09-2010 15:00:00 21.42 C 5.86 g/m*3 21.42 C 0 km/h
185 20-09-2010 16:00:00 22.46 C 6.22 g/m*3 22.46 C 0 km/h
186 20-09-2010 17:00:00 22.28 C 6.11 g/m*3 22.28 C 0 km/h
187 20-09-2010 18:00:00 21.3 C 6.67 g/m*3 21.3 C 0 km/h
188 20-09-2010 19:00:00 17.5 C 7.19 g/m*3 17.5 C 0 km/h
189 20-09-2010 20:00:00 15.34 C 7.54 g/m*3 15.34 C 0 km/h
190 20-09-2010 21:00:00 14.2 C 7.72 g/m*3 14.2 C 0 km/h
191 20-09-2010 22:00:00 13.22 C 8.07 g/m*3 13.22 C 0 km/h
192 20-09-2010 23:00:00 12.28 C 8.05 g/m*3 12.28 C 0 km/h
193 21-09-2010 00:00:00 11.52 C 7.88 g/m*3 11.52 C 0 km/h
194 21-09-2010 01:00:00 10.9 C 7.8 g/m*3 10.9 C 0 km/h
195 21-09-2010 02:00:00 10.24 C 7.69 g/m*3 10.24 C 0 km/h
196 21-09-2010 03:00:00 9.74 C 7.71 g/m*3 9.74 C 0 km/h
197 21-09-2010 04:00:00 9.22 C 7.51 g/m*3 9.22 C 0 km/h
198 21-09-2010 05:00:00 8.78 C 7.46 g/m*3 8.78 C 0 km/h
199 21-09-2010 06:00:00 8.34 C 7.37 g/m*3 8.34 C 0 km/h
200 21-09-2010 07:00:00 8.14 C 7.34 g/m*3 8.14 C 0 km/h
Sensor: Nr:Datum:Temp:Abs-Feuchte:Windchill:Wind:
Aussen-T/F 201 21-09-2010 08:00:00 8.26 C 7.53 g/m*3 8.26 C 0 km/h
202 21-09-2010 09:00:00 9.18 C 7.97 g/m*3 9.18 C 0 km/h
203 21-09-2010 10:00:00 11.12 C 8.71 g/m*3 11.12 C 0 km/h
204 21-09-2010 11:00:00 14.12 C 8.65 g/m*3 14.12 C 0 km/h
205 21-09-2010 12:00:00 16.14 C 8.99 g/m*3 16.14 C 0 km/h
206 21-09-2010 13:00:00 17.02 C 9.65 g/m*3 17.02 C 0 km/h
207 21-09-2010 14:00:00 17.82 C 9.48 g/m*3 17.82 C 0 km/h
208 21-09-2010 15:00:00 23.12 C 8.2 g/m*3 23.12 C 0 km/h
209 21-09-2010 16:00:00 25.16 C 7.62 g/m*3 25.16 C 0 km/h
210 21-09-2010 17:00:00 24.6 C 7.56 g/m*3 24.6 C 0 km/h
211 21-09-2010 18:00:00 22.18 C 7.88 g/m*3 22.18 C 0 km/h
212 21-09-2010 19:00:00 18.64 C 8.36 g/m*3 18.64 C 0 km/h
213 21-09-2010 20:00:00 16.3 C 8.52 g/m*3 16.3 C 0 km/h
214 21-09-2010 21:00:00 15.06 C 8.49 g/m*3 15.06 C 0 km/h
215 21-09-2010 22:00:00 13.9 C 8.51 g/m*3 13.9 C 0 km/h
216 21-09-2010 23:00:00 12.98 C 8.54 g/m*3 12.98 C 0 km/h
217 22-09-2010 00:00:00 12.2 C 8.55 g/m*3 12.2 C 0 km/h
218 22-09-2010 01:00:00 11.5 C 8.41 g/m*3 11.5 C 0 km/h
219 22-09-2010 02:00:00 10.78 C 8.15 g/m*3 10.78 C 0 km/h
220 22-09-2010 03:00:00 10.22 C 8 g/m*3 10.22 C 0 km/h
221 22-09-2010 04:00:00 9.72 C 7.94 g/m*3 9.72 C 0 km/h
222 22-09-2010 05:00:00 9.84 C 8.15 g/m*3 9.84 C 0 km/h
223 22-09-2010 06:00:00 9.78 C 8.15 g/m*3 9.78 C 0 km/h
224 22-09-2010 07:00:00 9.56 C 8.04 g/m*3 9.56 C 0 km/h
225 22-09-2010 08:00:00 9.36 C 7.96 g/m*3 9.36 C 0 km/h
Sensor: Nr:Datum:Temp:Abs-Feuchte:Windchill:Wind:
Aussen-T/F 226 22-09-2010 09:00:00 10.18 C 8.15 g/m*3 10.18 C 0 km/h
227 22-09-2010 10:00:00 12.42 C 8.64 g/m*3 12.42 C 0 km/h
228 22-09-2010 11:00:00 13.78 C 9.19 g/m*3 13.78 C 0 km/h
229 22-09-2010 12:00:00 16.54 C 9.97 g/m*3 16.54 C 0 km/h
230 22-09-2010 13:00:00 19.76 C 10.09 g/m*3 19.76 C 0 km/h
231 22-09-2010 14:00:00 22.86 C 10.07 g/m*3 22.86 C 0 km/h
232 22-09-2010 15:00:00 25.06 C 9.29 g/m*3 25.06 C 0 km/h
233 22-09-2010 16:00:00 27.32 C 8.59 g/m*3 27.32 C 0 km/h
234 22-09-2010 17:00:00 27.06 C 8.16 g/m*3 27.06 C 0 km/h
235 22-09-2010 18:00:00 24.88 C 9.1 g/m*3 24.88 C 0 km/h
236 22-09-2010 19:00:00 20.88 C 9.2 g/m*3 20.88 C 0 km/h
237 22-09-2010 20:00:00 18.54 C 9.1 g/m*3 18.54 C 0 km/h
238 22-09-2010 21:00:00 17.46 C 9.31 g/m*3 17.46 C 0 km/h
239 22-09-2010 22:00:00 16.18 C 9.26 g/m*3 16.18 C 0 km/h
240 22-09-2010 23:00:00 14.92 C 8.78 g/m*3 14.92 C 0 km/h
241 23-09-2010 00:00:00 14.02 C 8.65 g/m*3 14.02 C 0 km/h
242 23-09-2010 01:00:00 13.22 C 8.71 g/m*3 13.22 C 0 km/h
243 23-09-2010 02:00:00 12.44 C 8.7 g/m*3 12.44 C 0 km/h
244 23-09-2010 03:00:00 11.8 C 8.57 g/m*3 11.8 C 0 km/h
245 23-09-2010 04:00:00 11.16 C 8.39 g/m*3 11.16 C 0 km/h
246 23-09-2010 05:00:00 10.64 C 8.22 g/m*3 10.64 C 0 km/h
247 23-09-2010 06:00:00 10.46 C 8.2 g/m*3 10.46 C 0 km/h
248 23-09-2010 07:00:00 10.52 C 8.25 g/m*3 10.52 C 0 km/h
249 23-09-2010 08:00:00 10.88 C 8.42 g/m*3 10.88 C 0 km/h
250 23-09-2010 09:00:00 11.64 C 8.65 g/m*3 11.64 C 0 km/h
Sensor: Nr:Datum:Temp:Abs-Feuchte:Windchill:Wind:
Aussen-T/F 251 23-09-2010 10:00:00 12.98 C 9.24 g/m*3 12.98 C 0 km/h
252 23-09-2010 11:00:00 15.64 C 10.08 g/m*3 15.64 C 0 km/h
253 23-09-2010 12:00:00 18.66 C 10.61 g/m*3 18.66 C 0 km/h
254 23-09-2010 13:00:00 22.3 C 10.7 g/m*3 22.3 C 0 km/h
255 23-09-2010 14:00:00 24.06 C 10.22 g/m*3 24.06 C 0 km/h
256 23-09-2010 15:00:00 25.04 C 9.37 g/m*3 25.04 C 0 km/h
257 23-09-2010 16:00:00 25.14 C 9.88 g/m*3 25.14 C 0 km/h
258 23-09-2010 17:00:00 23.48 C 10.73 g/m*3 23.48 C 0 km/h
259 23-09-2010 18:00:00 22.12 C 10.63 g/m*3 22.12 C 0 km/h
260 23-09-2010 19:00:00 19.9 C 11.06 g/m*3 19.9 C 0 km/h
261 23-09-2010 20:00:00 18.5 C 11.3 g/m*3 18.5 C 0 km/h
262 23-09-2010 21:00:00 18.5 C 11.49 g/m*3 18.5 C 0 km/h
263 23-09-2010 22:00:00 17.94 C 11.82 g/m*3 17.94 C 0 km/h
264 23-09-2010 23:00:00 16.44 C 12.26 g/m*3 16.44 C 0 km/h
265 24-09-2010 00:00:00 15.7 C 12.18 g/m*3 15.7 C 0 km/h
266 24-09-2010 01:00:00 15.54 C 12.3 g/m*3 15.54 C 0 km/h
267 24-09-2010 02:00:00 15.38 C 12.15 g/m*3 15.38 C 0 km/h
268 24-09-2010 03:00:00 14.94 C 11.91 g/m*3 14.94 C 0 km/h
269 24-09-2010 04:00:00 14.78 C 11.89 g/m*3 14.78 C 0 km/h
270 24-09-2010 05:00:00 14.54 C 11.72 g/m*3 14.54 C 0 km/h
271 24-09-2010 06:00:00 14.7 C 11.83 g/m*3 14.7 C 0 km/h
272 24-09-2010 07:00:00 14.4 C 11.62 g/m*3 14.4 C 0 km/h
273 24-09-2010 08:00:00 14.58 C 11.82 g/m*3 14.58 C 0 km/h
274 24-09-2010 09:00:00 14.88 C 12.07 g/m*3 14.88 C 0 km/h
275 24-09-2010 10:00:00 14.98 C 12.06 g/m*3 14.98 C 0 km/h
Sensor: Nr:Datum:Temp:Abs-Feuchte:Windchill:Wind:
Aussen-T/F 276 24-09-2010 11:00:00 15.22 C 12.22 g/m*3 15.22 C 0 km/h
277 24-09-2010 12:00:00 15.14 C 12.18 g/m*3 15.14 C 0 km/h
278 24-09-2010 13:00:00 14.56 C 11.73 g/m*3 14.56 C 0 km/h
279 24-09-2010 14:00:00 13.54 C 11.02 g/m*3 13.54 C 0 km/h
280 24-09-2010 15:00:00 13.08 C 10.8 g/m*3 13.08 C 0 km/h
281 24-09-2010 16:00:00 13.8 C 11.32 g/m*3 13.8 C 0 km/h
282 24-09-2010 17:00:00 13.48 C 11.03 g/m*3 13.48 C 0 km/h
283 24-09-2010 18:00:00 13.26 C 10.83 g/m*3 13.26 C 0 km/h
284 24-09-2010 19:00:00 12.84 C 10.64 g/m*3 12.84 C 0 km/h
285 24-09-2010 20:00:00 12.7 C 10.58 g/m*3 12.7 C 0 km/h
286 24-09-2010 21:00:00 12.82 C 10.65 g/m*3 12.82 C 0 km/h
287 24-09-2010 22:00:00 12.7 C 10.58 g/m*3 12.7 C 0 km/h
288 24-09-2010 23:00:00 12.4 C 10.38 g/m*3 12.4 C 0 km/h
289 25-09-2010 00:00:00 12.48 C 10.43 g/m*3 12.48 C 0 km/h
290 25-09-2010 01:00:00 12.52 C 10.46 g/m*3 12.52 C 0 km/h
291 25-09-2010 02:00:00 12.6 C 10.51 g/m*3 12.6 C 0 km/h
292 25-09-2010 03:00:00 12.62 C 10.52 g/m*3 12.62 C 0 km/h
293 25-09-2010 04:00:00 12.54 C 10.47 g/m*3 12.54 C 0 km/h
294 25-09-2010 05:00:00 12.38 C 10.35 g/m*3 12.38 C 0 km/h
295 25-09-2010 06:00:00 12.06 C 10.06 g/m*3 12.06 C 0 km/h
296 25-09-2010 07:00:00 11.88 C 9.94 g/m*3 11.88 C 0 km/h
297 25-09-2010 08:00:00 11.26 C 9.5 g/m*3 11.26 C 0 km/h
298 25-09-2010 09:00:00 10.48 C 8.81 g/m*3 10.48 C 0 km/h
299 25-09-2010 10:00:00 11.04 C 8.25 g/m*3 11.04 C 0 km/h
300 25-09-2010 11:00:00 12.3 C 7.45 g/m*3 12.3 C 0 km/h
Sensor: Nr:Datum:Temp:Abs-Feuchte:Windchill:Wind:
Aussen-T/F 301 25-09-2010 12:00:00 12.44 C 6.9 g/m*3 12.44 C 0 km/h
302 25-09-2010 13:00:00 13.26 C 6.04 g/m*3 13.26 C 0 km/h
303 25-09-2010 14:00:00 14.24 C 5.36 g/m*3 14.24 C 0 km/h
304 25-09-2010 15:00:00 15.04 C 4.68 g/m*3 15.04 C 0 km/h
305 25-09-2010 16:00:00 14.72 C 4.97 g/m*3 14.72 C 0 km/h
306 25-09-2010 17:00:00 15.6 C 5.08 g/m*3 15.6 C 0 km/h
307 25-09-2010 18:00:00 14.22 C 5.06 g/m*3 14.22 C 0 km/h
308 25-09-2010 19:00:00 12.98 C 5.75 g/m*3 12.98 C 0 km/h
309 25-09-2010 20:00:00 11.7 C 5.88 g/m*3 11.7 C 0 km/h
310 25-09-2010 21:00:00 10.12 C 6.31 g/m*3 10.12 C 0 km/h
311 25-09-2010 22:00:00 10.28 C 6.68 g/m*3 10.28 C 0 km/h
312 25-09-2010 23:00:00 9.28 C 7.4 g/m*3 9.28 C 0 km/h
313 26-09-2010 00:00:00 9.44 C 7.76 g/m*3 9.44 C 0 km/h
314 26-09-2010 01:00:00 9.48 C 7.24 g/m*3 9.48 C 0 km/h
315 26-09-2010 02:00:00 9.42 C 7.05 g/m*3 9.42 C 0 km/h
316 26-09-2010 03:00:00 9.2 C 7.07 g/m*3 9.2 C 0 km/h
317 26-09-2010 04:00:00 8.88 C 7.28 g/m*3 8.88 C 0 km/h
318 26-09-2010 05:00:00 9.02 C 7.33 g/m*3 9.02 C 0 km/h
319 26-09-2010 06:00:00 8.9 C 7.38 g/m*3 8.9 C 0 km/h
320 26-09-2010 07:00:00 8.8 C 7.45 g/m*3 8.8 C 0 km/h
321 26-09-2010 08:00:00 9.62 C 7.3 g/m*3 9.62 C 0 km/h
322 26-09-2010 09:00:00 10.26 C 7.18 g/m*3 10.26 C 0 km/h
323 26-09-2010 10:00:00 11.84 C 6.75 g/m*3 11.84 C 0 km/h
324 26-09-2010 11:00:00 13.22 C 6.44 g/m*3 13.22 C 0 km/h
325 26-09-2010 12:00:00 14.48 C 6.39 g/m*3 14.48 C 0 km/h
Sensor: Nr:Datum:Temp:Abs-Feuchte:Windchill:Wind:
Aussen-T/F 326 26-09-2010 13:00:00 13 C 7.58 g/m*3 13 C 0 km/h
327 26-09-2010 14:00:00 13.3 C 8.3 g/m*3 13.3 C 0 km/h
328 26-09-2010 15:00:00 14.18 C 8.12 g/m*3 14.18 C 0 km/h
329 26-09-2010 16:00:00 14.92 C 7.04 g/m*3 14.92 C 0 km/h
330 26-09-2010 17:00:00 15.18 C 6.61 g/m*3 15.18 C 0 km/h
331 26-09-2010 18:00:00 12.96 C 6.95 g/m*3 12.96 C 0 km/h
332 26-09-2010 19:00:00 12.24 C 7.1 g/m*3 12.24 C 0 km/h
333 26-09-2010 20:00:00 11.78 C 7.21 g/m*3 11.78 C 0 km/h
334 26-09-2010 21:00:00 11.16 C 7.12 g/m*3 11.16 C 0 km/h
335 26-09-2010 22:00:00 9.7 C 7.06 g/m*3 9.7 C 0 km/h
336 26-09-2010 23:00:00 8.84 C 7.17 g/m*3 8.84 C 0 km/h
337 27-09-2010 00:00:00 8.12 C 7.07 g/m*3 8.12 C 0 km/h
338 27-09-2010 01:00:00 7.46 C 7.04 g/m*3 7.46 C 0 km/h
339 27-09-2010 02:00:00 6.84 C 6.86 g/m*3 6.84 C 0 km/h
340 27-09-2010 03:00:00 6.46 C 6.75 g/m*3 6.46 C 0 km/h
341 27-09-2010 04:00:00 6.24 C 6.8 g/m*3 6.24 C 0 km/h
342 27-09-2010 05:00:00 6.24 C 6.83 g/m*3 6.24 C 0 km/h
343 27-09-2010 06:00:00 6.32 C 6.89 g/m*3 6.32 C 0 km/h
344 27-09-2010 07:00:00 6.74 C 7.13 g/m*3 6.74 C 0 km/h
345 27-09-2010 08:00:00 7.7 C 7.61 g/m*3 7.7 C 0 km/h
346 27-09-2010 09:00:00 9.24 C 8.2 g/m*3 9.24 C 0 km/h
347 27-09-2010 10:00:00 10.76 C 7.57 g/m*3 10.76 C 0 km/h
348 27-09-2010 11:00:00 11.98 C 6.79 g/m*3 11.98 C 0 km/h
349 27-09-2010 12:00:00 12.78 C 6.82 g/m*3 12.78 C 0 km/h
350 27-09-2010 13:00:00 13.48 C 6.73 g/m*3 13.48 C 0 km/h
Sensor: Nr:Datum:Temp:Abs-Feuchte:Windchill:Wind:
Aussen-T/F 351 27-09-2010 14:00:00 13.26 C 6.66 g/m*3 13.26 C 0 km/h
352 27-09-2010 15:00:00 13.4 C 6.65 g/m*3 13.4 C 0 km/h
353 27-09-2010 16:00:00 13.38 C 7.2 g/m*3 13.38 C 0 km/h
354 27-09-2010 17:00:00 12.9 C 7.69 g/m*3 12.9 C 0 km/h
355 27-09-2010 18:00:00 11.94 C 7.73 g/m*3 11.94 C 0 km/h
356 27-09-2010 19:00:00 10.58 C 8.13 g/m*3 10.58 C 0 km/h
357 27-09-2010 20:00:00 10.3 C 8.39 g/m*3 10.3 C 0 km/h
358 27-09-2010 21:00:00 10.34 C 8.55 g/m*3 10.34 C 0 km/h
359 27-09-2010 22:00:00 10.3 C 8.6 g/m*3 10.3 C 0 km/h
360 27-09-2010 23:00:00 10.16 C 8.64 g/m*3 10.16 C 0 km/h
361 28-09-2010 00:00:00 10 C 8.68 g/m*3 10 C 0 km/h
362 28-09-2010 01:00:00 9.98 C 8.75 g/m*3 9.98 C 0 km/h
363 28-09-2010 02:00:00 9.9 C 8.78 g/m*3 9.9 C 0 km/h
364 28-09-2010 03:00:00 9.9 C 8.87 g/m*3 9.9 C 0 km/h
365 28-09-2010 04:00:00 9.92 C 8.86 g/m*3 9.92 C 0 km/h
366 28-09-2010 05:00:00 10 C 8.93 g/m*3 10 C 0 km/h
367 28-09-2010 06:00:00 10.08 C 8.97 g/m*3 10.08 C 0 km/h
368 28-09-2010 07:00:00 10 C 8.93 g/m*3 10 C 0 km/h
369 28-09-2010 08:00:00 10.04 C 8.95 g/m*3 10.04 C 0 km/h
370 28-09-2010 09:00:00 10.24 C 9.06 g/m*3 10.24 C 0 km/h
371 28-09-2010 10:00:00 10.58 C 9.26 g/m*3 10.58 C 0 km/h
372 28-09-2010 11:00:00 11.18 C 9.62 g/m*3 11.18 C 0 km/h
373 28-09-2010 12:00:00 11.48 C 9.72 g/m*3 11.48 C 0 km/h
374 28-09-2010 13:00:00 11.74 C 9.71 g/m*3 11.74 C 0 km/h
375 28-09-2010 14:00:00 11.76 C 9.66 g/m*3 11.76 C 0 km/h
Sensor: Nr:Datum:Temp:Abs-Feuchte:Windchill:Wind:
Aussen-T/F 376 28-09-2010 15:00:00 11.74 C 9.73 g/m*3 11.74 C 0 km/h
377 28-09-2010 16:00:00 11.84 C 9.85 g/m*3 11.84 C 0 km/h
378 28-09-2010 17:00:00 11.98 C 10.01 g/m*3 11.98 C 0 km/h
379 28-09-2010 18:00:00 11.86 C 9.99 g/m*3 11.86 C 0 km/h
380 28-09-2010 19:00:00 11.72 C 9.95 g/m*3 11.72 C 0 km/h
381 28-09-2010 20:00:00 11.6 C 9.87 g/m*3 11.6 C 0 km/h
382 28-09-2010 21:00:00 11.58 C 9.86 g/m*3 11.58 C 0 km/h
383 28-09-2010 22:00:00 11.62 C 9.89 g/m*3 11.62 C 0 km/h
384 28-09-2010 23:00:00 11.6 C 9.87 g/m*3 11.6 C 0 km/h
385 29-09-2010 00:00:00 11.64 C 9.9 g/m*3 11.64 C 0 km/h
386 29-09-2010 01:00:00 11.62 C 9.89 g/m*3 11.62 C 0 km/h
387 29-09-2010 02:00:00 11.56 C 9.85 g/m*3 11.56 C 0 km/h
388 29-09-2010 03:00:00 11.48 C 9.8 g/m*3 11.48 C 0 km/h
389 29-09-2010 04:00:00 11.48 C 9.8 g/m*3 11.48 C 0 km/h
390 29-09-2010 05:00:00 11.4 C 9.75 g/m*3 11.4 C 0 km/h
391 29-09-2010 06:00:00 11.52 C 9.82 g/m*3 11.52 C 0 km/h
392 29-09-2010 07:00:00 11.04 C 9.53 g/m*3 11.04 C 0 km/h
393 29-09-2010 08:00:00 11.18 C 9.62 g/m*3 11.18 C 0 km/h
394 29-09-2010 09:00:00 11.44 C 9.57 g/m*3 11.44 C 0 km/h
395 29-09-2010 10:00:00 12.92 C 8.98 g/m*3 12.92 C 0 km/h
396 29-09-2010 11:00:00 13.96 C 8.42 g/m*3 13.96 C 0 km/h
397 29-09-2010 12:00:00 14.4 C 8.03 g/m*3 14.4 C 0 km/h
398 29-09-2010 13:00:00 15.74 C 7.89 g/m*3 15.74 C 0 km/h
399 29-09-2010 14:00:00 16.82 C 7.64 g/m*3 16.82 C 0 km/h
400 29-09-2010 15:00:00 19.16 C 6.88 g/m*3 19.16 C 0 km/h
Sensor: Nr:Datum:Temp:Abs-Feuchte:Windchill:Wind:
Aussen-T/F 401 29-09-2010 16:00:00 18.14 C 7.62 g/m*3 18.14 C 0 km/h
402 29-09-2010 17:00:00 18.3 C 7.54 g/m*3 18.3 C 0 km/h
403 29-09-2010 18:00:00 14.62 C 7.84 g/m*3 14.62 C 0 km/h
404 29-09-2010 19:00:00 13.08 C 7.68 g/m*3 13.08 C 0 km/h
405 29-09-2010 20:00:00 13.12 C 7.7 g/m*3 13.12 C 0 km/h
406 29-09-2010 21:00:00 12.5 C 7.94 g/m*3 12.5 C 0 km/h
407 29-09-2010 22:00:00 12.38 C 8.36 g/m*3 12.38 C 0 km/h
408 29-09-2010 23:00:00 11.96 C 8.33 g/m*3 11.96 C 0 km/h
409 30-09-2010 00:00:00 12.16 C 8.44 g/m*3 12.16 C 0 km/h
410 30-09-2010 01:00:00 11.86 C 7.75 g/m*3 11.86 C 0 km/h
411 30-09-2010 02:00:00 11.46 C 7.62 g/m*3 11.46 C 0 km/h
412 30-09-2010 03:00:00 11.16 C 7.87 g/m*3 11.16 C 0 km/h
413 30-09-2010 04:00:00 11.02 C 7.88 g/m*3 11.02 C 0 km/h
414 30-09-2010 05:00:00 10.76 C 7.79 g/m*3 10.76 C 0 km/h
415 30-09-2010 06:00:00 10.7 C 7.33 g/m*3 10.7 C 0 km/h
416 30-09-2010 07:00:00 10.66 C 7.66 g/m*3 10.66 C 0 km/h
417 30-09-2010 08:00:00 10.9 C 7.76 g/m*3 10.9 C 0 km/h
418 30-09-2010 09:00:00 11.4 C 7.86 g/m*3 11.4 C 0 km/h
419 30-09-2010 10:00:00 11.64 C 8.27 g/m*3 11.64 C 0 km/h
420 30-09-2010 11:00:00 11.86 C 8.47 g/m*3 11.86 C 0 km/h
421 30-09-2010 12:00:00 11.98 C 8.94 g/m*3 11.98 C 0 km/h
422 30-09-2010 13:00:00 12.58 C 9.55 g/m*3 12.58 C 0 km/h
423 30-09-2010 14:00:00 12.94 C 9.9 g/m*3 12.94 C 0 km/h
424 30-09-2010 15:00:00 13.26 C 10.12 g/m*3 13.26 C 0 km/h
425 30-09-2010 16:00:00 13.4 C 10.16 g/m*3 13.4 C 0 km/h
Sensor: Nr:Datum:Temp:Abs-Feuchte:Windchill:Wind:
Aussen-T/F 426 30-09-2010 17:00:00 12.96 C 9.98 g/m*3 12.96 C 0 km/h
427 30-09-2010 18:00:00 12.48 C 9.82 g/m*3 12.48 C 0 km/h
428 30-09-2010 19:00:00 12.14 C 9.78 g/m*3 12.14 C 0 km/h
429 30-09-2010 20:00:00 12.16 C 9.92 g/m*3 12.16 C 0 km/h
430 30-09-2010 21:00:00 12.08 C 9.96 g/m*3 12.08 C 0 km/h
431 30-09-2010 22:00:00 11.96 C 9.93 g/m*3 11.96 C 0 km/h
432 30-09-2010 23:00:00 12 C 10 g/m*3 12 C 0 km/h
433 01-10-2010 00:00:00 12.02 C 10.05 g/m*3 12.02 C 0 km/h
434 01-10-2010 01:00:00 11.58 C 9.86 g/m*3 11.58 C 0 km/h
435 01-10-2010 02:00:00 11.44 C 9.78 g/m*3 11.44 C 0 km/h
436 01-10-2010 03:00:00 11.56 C 9.85 g/m*3 11.56 C 0 km/h
437 01-10-2010 04:00:00 11.7 C 9.94 g/m*3 11.7 C 0 km/h
438 01-10-2010 05:00:00 11.62 C 9.89 g/m*3 11.62 C 0 km/h
439 01-10-2010 06:00:00 11.4 C 9.75 g/m*3 11.4 C 0 km/h
440 01-10-2010 07:00:00 11 C 9.51 g/m*3 11 C 0 km/h
441 01-10-2010 08:00:00 10.3 C 9.1 g/m*3 10.3 C 0 km/h
442 01-10-2010 09:00:00 11.24 C 9.65 g/m*3 11.24 C 0 km/h
443 01-10-2010 10:00:00 11.72 C 9.63 g/m*3 11.72 C 0 km/h
444 01-10-2010 11:00:00 12.46 C 8.84 g/m*3 12.46 C 0 km/h
445 01-10-2010 12:00:00 12.68 C 8.49 g/m*3 12.68 C 0 km/h
446 01-10-2010 13:00:00 13.18 C 8.12 g/m*3 13.18 C 0 km/h
447 01-10-2010 14:00:00 13.32 C 7.94 g/m*3 13.32 C 0 km/h
448 01-10-2010 15:00:00 15.3 C 7.78 g/m*3 15.3 C 0 km/h
449 01-10-2010 16:00:00 16.74 C 7.61 g/m*3 16.74 C 0 km/h
450 01-10-2010 17:00:00 16.14 C 8.35 g/m*3 16.14 C 0 km/h
Sensor: Nr:Datum:Temp:Abs-Feuchte:Windchill:Wind:
Aussen-T/F 451 01-10-2010 18:00:00 14.34 C 8.79 g/m*3 14.34 C 0 km/h
452 01-10-2010 19:00:00 12.18 C 8.56 g/m*3 12.18 C 0 km/h
453 01-10-2010 20:00:00 11.26 C 8.51 g/m*3 11.26 C 0 km/h
454 01-10-2010 21:00:00 10.86 C 8.53 g/m*3 10.86 C 0 km/h
455 01-10-2010 22:00:00 10.98 C 8.76 g/m*3 10.98 C 0 km/h
456 01-10-2010 23:00:00 11.06 C 8.74 g/m*3 11.06 C 0 km/h
457 02-10-2010 00:00:00 11.12 C 8.71 g/m*3 11.12 C 0 km/h
458 02-10-2010 01:00:00 10.92 C 8.74 g/m*3 10.92 C 0 km/h
459 02-10-2010 02:00:00 10.96 C 8.97 g/m*3 10.96 C 0 km/h
460 02-10-2010 03:00:00 11.1 C 9.15 g/m*3 11.1 C 0 km/h
461 02-10-2010 04:00:00 11.08 C 9.26 g/m*3 11.08 C 0 km/h
462 02-10-2010 05:00:00 10.98 C 9.3 g/m*3 10.98 C 0 km/h
463 02-10-2010 06:00:00 11 C 9.39 g/m*3 11 C 0 km/h
464 02-10-2010 07:00:00 11.14 C 9.55 g/m*3 11.14 C 0 km/h
465 02-10-2010 08:00:00 11.46 C 9.79 g/m*3 11.46 C 0 km/h
466 02-10-2010 09:00:00 12 C 10.12 g/m*3 12 C 0 km/h
467 02-10-2010 10:00:00 13.14 C 10.75 g/m*3 13.14 C 0 km/h
468 02-10-2010 11:00:00 14.32 C 11.27 g/m*3 14.32 C 0 km/h
469 02-10-2010 12:00:00 15.04 C 11.52 g/m*3 15.04 C 0 km/h
470 02-10-2010 13:00:00 15.74 C 11.53 g/m*3 15.74 C 0 km/h
471 02-10-2010 14:00:00 15.64 C 11.41 g/m*3 15.64 C 0 km/h
472 02-10-2010 15:00:00 16 C 11.47 g/m*3 16 C 0 km/h
473 02-10-2010 16:00:00 16.24 C 11.09 g/m*3 16.24 C 0 km/h
474 02-10-2010 17:00:00 16.28 C 10.92 g/m*3 16.28 C 0 km/h
475 02-10-2010 18:00:00 15.42 C 10.92 g/m*3 15.42 C 0 km/h
Sensor: Nr:Datum:Temp:Abs-Feuchte:Windchill:Wind:
Aussen-T/F 476 02-10-2010 19:00:00 14.94 C 10.94 g/m*3 14.94 C 0 km/h
477 02-10-2010 20:00:00 14.8 C 11.1 g/m*3 14.8 C 0 km/h
478 02-10-2010 21:00:00 14.5 C 11.02 g/m*3 14.5 C 0 km/h
479 02-10-2010 22:00:00 14.48 C 11.16 g/m*3 14.48 C 0 km/h
480 02-10-2010 23:00:00 14.56 C 11.13 g/m*3 14.56 C 0 km/h
481 03-10-2010 00:00:00 14.44 C 11.08 g/m*3 14.44 C 0 km/h
482 03-10-2010 01:00:00 14.7 C 10.7 g/m*3 14.7 C 0 km/h
483 03-10-2010 02:00:00 14.58 C 10.32 g/m*3 14.58 C 0 km/h
484 03-10-2010 03:00:00 13.92 C 10.59 g/m*3 13.92 C 0 km/h
485 03-10-2010 04:00:00 14.08 C 10.62 g/m*3 14.08 C 0 km/h
486 03-10-2010 05:00:00 14.26 C 10.34 g/m*3 14.26 C 0 km/h
487 03-10-2010 06:00:00 13.46 C 10.24 g/m*3 13.46 C 0 km/h
488 03-10-2010 07:00:00 13.42 C 10.43 g/m*3 13.42 C 0 km/h
489 03-10-2010 08:00:00 13.98 C 10.41 g/m*3 13.98 C 0 km/h
490 03-10-2010 09:00:00 15.12 C 10.08 g/m*3 15.12 C 0 km/h
491 03-10-2010 10:00:00 16.78 C 9.91 g/m*3 16.78 C 0 km/h
492 03-10-2010 11:00:00 18.14 C 10.13 g/m*3 18.14 C 0 km/h
493 03-10-2010 12:00:00 19.68 C 9.74 g/m*3 19.68 C 0 km/h
494 03-10-2010 13:00:00 21.36 C 9.43 g/m*3 21.36 C 0 km/h
495 03-10-2010 14:00:00 23.34 C 9.09 g/m*3 23.34 C 0 km/h
496 03-10-2010 15:00:00 24.72 C 8.61 g/m*3 24.72 C 0 km/h
497 03-10-2010 16:00:00 25.12 C 8.67 g/m*3 25.12 C 0 km/h
498 03-10-2010 17:00:00 25.22 C 9.37 g/m*3 25.22 C 0 km/h
499 03-10-2010 18:00:00 21.54 C 10.55 g/m*3 21.54 C 0 km/h
500 03-10-2010 19:00:00 18.78 C 10.84 g/m*3 18.78 C 0 km/h
Sensor: Nr:Datum:Temp:Abs-Feuchte:Windchill:Wind:
Aussen-T/F 501 03-10-2010 20:00:00 18.34 C 10.88 g/m*3 18.34 C 0 km/h
502 03-10-2010 21:00:00 17.96 C 11.03 g/m*3 17.96 C 0 km/h
503 03-10-2010 22:00:00 17.56 C 10.86 g/m*3 17.56 C 0 km/h
504 03-10-2010 23:00:00 17.56 C 10.32 g/m*3 17.56 C 0 km/h
505 04-10-2010 00:00:00 17.28 C 9.86 g/m*3 17.28 C 0 km/h
506 04-10-2010 01:00:00 17.18 C 9.59 g/m*3 17.18 C 0 km/h
507 04-10-2010 02:00:00 16.82 C 9.65 g/m*3 16.82 C 0 km/h
508 04-10-2010 03:00:00 15.76 C 9.96 g/m*3 15.76 C 0 km/h
509 04-10-2010 04:00:00 15.1 C 9.99 g/m*3 15.1 C 0 km/h
510 04-10-2010 05:00:00 14.3 C 9.95 g/m*3 14.3 C 0 km/h
511 04-10-2010 06:00:00 13.92 C 9.94 g/m*3 13.92 C 0 km/h
512 04-10-2010 07:00:00 13.62 C 9.83 g/m*3 13.62 C 0 km/h
513 04-10-2010 08:00:00 14.26 C 9.8 g/m*3 14.26 C 0 km/h
514 04-10-2010 09:00:00 15 C 9.23 g/m*3 15 C 0 km/h
515 04-10-2010 10:00:00 15.66 C 8.97 g/m*3 15.66 C 0 km/h
516 04-10-2010 11:00:00 17.62 C 8.92 g/m*3 17.62 C 0 km/h
517 04-10-2010 12:00:00 17.84 C 8.76 g/m*3 17.84 C 0 km/h
518 04-10-2010 13:00:00 18.72 C 8.62 g/m*3 18.72 C 0 km/h
519 04-10-2010 14:00:00 19.76 C 8.72 g/m*3 19.76 C 0 km/h
520 04-10-2010 15:00:00 22.5 C 8.63 g/m*3 22.5 C 0 km/h
521 04-10-2010 16:00:00 23.64 C 8.23 g/m*3 23.64 C 0 km/h
522 04-10-2010 17:00:00 21.14 C 9.16 g/m*3 21.14 C 0 km/h
523 04-10-2010 18:00:00 18.68 C 9.66 g/m*3 18.68 C 0 km/h
524 04-10-2010 19:00:00 16.52 C 10.09 g/m*3 16.52 C 0 km/h
525 04-10-2010 20:00:00 16.22 C 10.02 g/m*3 16.22 C 0 km/h
Sensor: Nr:Datum:Temp:Abs-Feuchte:Windchill:Wind:
Aussen-T/F 526 04-10-2010 21:00:00 15.42 C 9.94 g/m*3 15.42 C 0 km/h
527 04-10-2010 22:00:00 14.56 C 9.91 g/m*3 14.56 C 0 km/h
528 04-10-2010 23:00:00 14.2 C 9.92 g/m*3 14.2 C 0 km/h
529 05-10-2010 00:00:00 14.2 C 10.01 g/m*3 14.2 C 0 km/h
530 05-10-2010 01:00:00 13.94 C 9.9 g/m*3 13.94 C 0 km/h
531 05-10-2010 02:00:00 13.52 C 9.84 g/m*3 13.52 C 0 km/h
532 05-10-2010 03:00:00 13.6 C 10 g/m*3 13.6 C 0 km/h
533 05-10-2010 04:00:00 13.6 C 10.1 g/m*3 13.6 C 0 km/h
534 05-10-2010 05:00:00 13.6 C 10.14 g/m*3 13.6 C 0 km/h
535 05-10-2010 06:00:00 13.42 C 10.38 g/m*3 13.42 C 0 km/h
536 05-10-2010 07:00:00 13.4 C 10.56 g/m*3 13.4 C 0 km/h
537 05-10-2010 08:00:00 13.14 C 10.41 g/m*3 13.14 C 0 km/h
538 05-10-2010 09:00:00 13.3 C 10.68 g/m*3 13.3 C 0 km/h
539 05-10-2010 10:00:00 14.8 C 11.81 g/m*3 14.8 C 0 km/h
540 05-10-2010 11:00:00 17.48 C 13.01 g/m*3 17.48 C 0 km/h
541 05-10-2010 12:00:00 18.1 C 11.43 g/m*3 18.1 C 0 km/h
542 05-10-2010 13:00:00 19.18 C 11.23 g/m*3 19.18 C 0 km/h
543 05-10-2010 14:00:00 19.26 C 10.95 g/m*3 19.26 C 0 km/h
544 05-10-2010 15:00:00 18.8 C 12.63 g/m*3 18.8 C 0 km/h
545 05-10-2010 16:00:00 18.5 C 12.47 g/m*3 18.5 C 0 km/h
546 05-10-2010 17:00:00 17.1 C 11.67 g/m*3 17.1 C 0 km/h
547 05-10-2010 18:00:00 17.02 C 11.44 g/m*3 17.02 C 0 km/h
548 05-10-2010 19:00:00 16.66 C 11.31 g/m*3 16.66 C 0 km/h
549 05-10-2010 20:00:00 16.36 C 10.94 g/m*3 16.36 C 0 km/h
550 05-10-2010 21:00:00 15.68 C 10.26 g/m*3 15.68 C 0 km/h
Sensor: Nr:Datum:Temp:Abs-Feuchte:Windchill:Wind:
Aussen-T/F 551 05-10-2010 22:00:00 15.3 C 9.98 g/m*3 15.3 C 0 km/h
552 05-10-2010 23:00:00 15.6 C 9.97 g/m*3 15.6 C 0 km/h
553 06-10-2010 00:00:00 15.6 C 9.97 g/m*3 15.6 C 0 km/h
554 06-10-2010 01:00:00 15.5 C 9.99 g/m*3 15.5 C 0 km/h
555 06-10-2010 02:00:00 15.44 C 10.17 g/m*3 15.44 C 0 km/h
556 06-10-2010 03:00:00 15.28 C 10.1 g/m*3 15.28 C 0 km/h
557 06-10-2010 04:00:00 15.1 C 10.09 g/m*3 15.1 C 0 km/h
558 06-10-2010 05:00:00 14.92 C 10.26 g/m*3 14.92 C 0 km/h
559 06-10-2010 06:00:00 14.82 C 10.1 g/m*3 14.82 C 0 km/h
560 06-10-2010 07:00:00 14.66 C 9.95 g/m*3 14.66 C 0 km/h
561 06-10-2010 08:00:00 14.52 C 10.19 g/m*3 14.52 C 0 km/h
562 06-10-2010 09:00:00 15.54 C 10.12 g/m*3 15.54 C 0 km/h
563 06-10-2010 10:00:00 16.24 C 9.93 g/m*3 16.24 C 0 km/h
564 06-10-2010 11:00:00 17.76 C 9.27 g/m*3 17.76 C 0 km/h
565 06-10-2010 12:00:00 19.04 C 8.69 g/m*3 19.04 C 0 km/h
566 06-10-2010 13:00:00 20.2 C 8.5 g/m*3 20.2 C 0 km/h
567 06-10-2010 14:00:00 21.62 C 8.24 g/m*3 21.62 C 0 km/h
568 06-10-2010 15:00:00 23.06 C 8.25 g/m*3 23.06 C 0 km/h
569 06-10-2010 16:00:00 22.84 C 8.96 g/m*3 22.84 C 0 km/h
570 06-10-2010 17:00:00 21.08 C 10.16 g/m*3 21.08 C 0 km/h
571 06-10-2010 18:00:00 18.94 C 10.23 g/m*3 18.94 C 0 km/h
572 06-10-2010 19:00:00 17.3 C 10.19 g/m*3 17.3 C 0 km/h
573 06-10-2010 20:00:00 16.9 C 10.13 g/m*3 16.9 C 0 km/h
574 06-10-2010 21:00:00 16.36 C 10.42 g/m*3 16.36 C 0 km/h
575 06-10-2010 22:00:00 15.74 C 10.52 g/m*3 15.74 C 0 km/h
Sensor: Nr:Datum:Temp:Abs-Feuchte:Windchill:Wind:
Aussen-T/F 576 06-10-2010 23:00:00 14.9 C 10.32 g/m*3 14.9 C 0 km/h
577 07-10-2010 00:00:00 14.22 C 10.17 g/m*3 14.22 C 0 km/h
578 07-10-2010 01:00:00 14.24 C 10.5 g/m*3 14.24 C 0 km/h
579 07-10-2010 02:00:00 14.24 C 10.43 g/m*3 14.24 C 0 km/h
580 07-10-2010 03:00:00 14.08 C 10.35 g/m*3 14.08 C 0 km/h
581 07-10-2010 04:00:00 13.82 C 10.31 g/m*3 13.82 C 0 km/h
582 07-10-2010 05:00:00 13.3 C 10.17 g/m*3 13.3 C 0 km/h
583 07-10-2010 06:00:00 13.84 C 10.51 g/m*3 13.84 C 0 km/h
584 07-10-2010 07:00:00 14.12 C 10.6 g/m*3 14.12 C 0 km/h
585 07-10-2010 08:00:00 14.66 C 10.9 g/m*3 14.66 C 0 km/h
586 07-10-2010 09:00:00 15.06 C 10.6 g/m*3 15.06 C 0 km/h
587 07-10-2010 10:00:00 16.18 C 10.33 g/m*3 16.18 C 0 km/h
588 07-10-2010 11:00:00 17.26 C 10.32 g/m*3 17.26 C 0 km/h
589 07-10-2010 12:00:00 18.4 C 9.97 g/m*3 18.4 C 0 km/h
590 07-10-2010 13:00:00 19.26 C 9.83 g/m*3 19.26 C 0 km/h
591 07-10-2010 14:00:00 19.88 C 9.78 g/m*3 19.88 C 0 km/h
592 07-10-2010 15:00:00 20.5 C 9.5 g/m*3 20.5 C 0 km/h
593 07-10-2010 16:00:00 19.94 C 9.47 g/m*3 19.94 C 0 km/h
594 07-10-2010 17:00:00 19.16 C 9.57 g/m*3 19.16 C 0 km/h
595 07-10-2010 18:00:00 17.88 C 10.22 g/m*3 17.88 C 0 km/h
596 07-10-2010 19:00:00 16.9 C 10.38 g/m*3 16.9 C 0 km/h
597 07-10-2010 20:00:00 16.3 C 10.35 g/m*3 16.3 C 0 km/h
598 07-10-2010 21:00:00 16.22 C 10.13 g/m*3 16.22 C 0 km/h
599 07-10-2010 22:00:00 16 C 9.86 g/m*3 16 C 0 km/h
600 07-10-2010 23:00:00 16.02 C 9.74 g/m*3 16.02 C 0 km/h
Sensor: Nr:Datum:Temp:Abs-Feuchte:Windchill:Wind:
Aussen-T/F 601 08-10-2010 00:00:00 15.82 C 9.89 g/m*3 15.82 C 0 km/h
602 08-10-2010 01:00:00 15.62 C 9.67 g/m*3 15.62 C 0 km/h
603 08-10-2010 02:00:00 15.44 C 9.35 g/m*3 15.44 C 0 km/h
604 08-10-2010 03:00:00 14.92 C 8.75 g/m*3 14.92 C 0 km/h
605 08-10-2010 04:00:00 14.52 C 8.57 g/m*3 14.52 C 0 km/h
606 08-10-2010 05:00:00 14.24 C 8.81 g/m*3 14.24 C 0 km/h
607 08-10-2010 06:00:00 13.98 C 8.96 g/m*3 13.98 C 0 km/h
608 08-10-2010 07:00:00 14.02 C 9.13 g/m*3 14.02 C 0 km/h
609 08-10-2010 08:00:00 14.2 C 9.23 g/m*3 14.2 C 0 km/h
610 08-10-2010 09:00:00 14.6 C 9.41 g/m*3 14.6 C 0 km/h
611 08-10-2010 10:00:00 15.28 C 9.47 g/m*3 15.28 C 0 km/h
612 08-10-2010 11:00:00 15.86 C 9.29 g/m*3 15.86 C 0 km/h
613 08-10-2010 12:00:00 16.54 C 9.09 g/m*3 16.54 C 0 km/h
614 08-10-2010 13:00:00 16.94 C 8.77 g/m*3 16.94 C 0 km/h
615 08-10-2010 14:00:00 18.76 C 8.77 g/m*3 18.76 C 0 km/h
616 08-10-2010 15:00:00 20.32 C 8.52 g/m*3 20.32 C 0 km/h
617 08-10-2010 16:00:00 22.2 C 8.95 g/m*3 22.2 C 0 km/h
618 08-10-2010 17:00:00 21.78 C 9.24 g/m*3 21.78 C 0 km/h
619 08-10-2010 18:00:00 19.06 C 9.68 g/m*3 19.06 C 0 km/h
620 08-10-2010 19:00:00 15.88 C 9.98 g/m*3 15.88 C 0 km/h
621 08-10-2010 20:00:00 14.78 C 9.79 g/m*3 14.78 C 0 km/h
622 08-10-2010 21:00:00 14.08 C 9.65 g/m*3 14.08 C 0 km/h
623 08-10-2010 22:00:00 13.28 C 9.51 g/m*3 13.28 C 0 km/h
624 08-10-2010 23:00:00 12.58 C 9.3 g/m*3 12.58 C 0 km/h
625 09-10-2010 00:00:00 11.9 C 9.11 g/m*3 11.9 C 0 km/h
Sensor: Nr:Datum:Temp:Abs-Feuchte:Windchill:Wind:
Aussen-T/F 626 09-10-2010 01:00:00 11.34 C 8.96 g/m*3 11.34 C 0 km/h
627 09-10-2010 02:00:00 10.74 C 8.68 g/m*3 10.74 C 0 km/h
628 09-10-2010 03:00:00 10.24 C 8.43 g/m*3 10.24 C 0 km/h
629 09-10-2010 04:00:00 9.78 C 8.32 g/m*3 9.78 C 0 km/h
630 09-10-2010 05:00:00 9.52 C 8.29 g/m*3 9.52 C 0 km/h
631 09-10-2010 06:00:00 9.42 C 8.31 g/m*3 9.42 C 0 km/h
632 09-10-2010 07:00:00 9.24 C 8.24 g/m*3 9.24 C 0 km/h
633 09-10-2010 08:00:00 9.2 C 8.22 g/m*3 9.2 C 0 km/h
634 09-10-2010 09:00:00 9.28 C 8.24 g/m*3 9.28 C 0 km/h
635 09-10-2010 10:00:00 10.44 C 8.87 g/m*3 10.44 C 0 km/h
636 09-10-2010 11:00:00 12.52 C 9.53 g/m*3 12.52 C 0 km/h
637 09-10-2010 12:00:00 14.68 C 8.2 g/m*3 14.68 C 0 km/h
638 09-10-2010 13:00:00 17.1 C 7.89 g/m*3 17.1 C 0 km/h
639 09-10-2010 14:00:00 19.96 C 7.03 g/m*3 19.96 C 0 km/h
640 09-10-2010 15:00:00 21.86 C 6.28 g/m*3 21.86 C 0 km/h
641 09-10-2010 16:00:00 22.16 C 6.23 g/m*3 22.16 C 0 km/h
642 09-10-2010 17:00:00 20.8 C 6.19 g/m*3 20.8 C 0 km/h
643 09-10-2010 18:00:00 17.02 C 6.26 g/m*3 17.02 C 0 km/h
644 09-10-2010 19:00:00 13.8 C 6.12 g/m*3 13.8 C 0 km/h
645 09-10-2010 20:00:00 12.84 C 6.58 g/m*3 12.84 C 0 km/h
646 09-10-2010 21:00:00 11.48 C 6.99 g/m*3 11.48 C 0 km/h
647 09-10-2010 22:00:00 10.6 C 7.03 g/m*3 10.6 C 0 km/h
648 09-10-2010 23:00:00 9.62 C 6.92 g/m*3 9.62 C 0 km/h
649 10-10-2010 00:00:00 8.94 C 6.99 g/m*3 8.94 C 0 km/h
650 10-10-2010 01:00:00 8.38 C 6.93 g/m*3 8.38 C 0 km/h
Sensor: Nr:Datum:Temp:Abs-Feuchte:Windchill:Wind:
Aussen-T/F 651 10-10-2010 02:00:00 7.76 C 6.82 g/m*3 7.76 C 0 km/h
652 10-10-2010 03:00:00 7.14 C 6.66 g/m*3 7.14 C 0 km/h
653 10-10-2010 04:00:00 6.76 C 6.61 g/m*3 6.76 C 0 km/h
654 10-10-2010 05:00:00 6.28 C 6.45 g/m*3 6.28 C 0 km/h
655 10-10-2010 06:00:00 5.86 C 6.36 g/m*3 5.86 C 0 km/h
656 10-10-2010 07:00:00 5.5 C 6.31 g/m*3 5.5 C 0 km/h
657 10-10-2010 08:00:00 6.36 C 6.69 g/m*3 6.36 C 0 km/h
658 10-10-2010 09:00:00 7.26 C 6.79 g/m*3 7.26 C 0 km/h
659 10-10-2010 10:00:00 8.92 C 6.6 g/m*3 8.92 C 0 km/h
660 10-10-2010 11:00:00 10.92 C 6.57 g/m*3 10.92 C 0 km/h
661 10-10-2010 12:00:00 12.8 C 6.47 g/m*3 12.8 C 0 km/h
662 10-10-2010 13:00:00 15.86 C 5.67 g/m*3 15.86 C 0 km/h
663 10-10-2010 14:00:00 18.62 C 5.45 g/m*3 18.62 C 0 km/h
664 10-10-2010 15:00:00 20.4 C 5.91 g/m*3 20.4 C 0 km/h
665 10-10-2010 16:00:00 21.28 C 5.7 g/m*3 21.28 C 0 km/h
666 10-10-2010 17:00:00 20.64 C 5.6 g/m*3 20.64 C 0 km/h
667 10-10-2010 18:00:00 17.2 C 5.45 g/m*3 17.2 C 0 km/h
668 10-10-2010 19:00:00 14.18 C 5.49 g/m*3 14.18 C 0 km/h
669 10-10-2010 20:00:00 13.02 C 4.91 g/m*3 13.02 C 0 km/h
670 10-10-2010 21:00:00 12.44 C 4.01 g/m*3 12.44 C 0 km/h
671 10-10-2010 22:00:00 11.46 C 4.12 g/m*3 11.46 C 0 km/h
672 10-10-2010 23:00:00 10.72 C 4.52 g/m*3 10.72 C 0 km/h
673 11-10-2010 00:00:00 9.98 C 4.88 g/m*3 9.98 C 0 km/h
674 11-10-2010 01:00:00 9.44 C 4.91 g/m*3 9.44 C 0 km/h
675 11-10-2010 02:00:00 9.08 C 4.87 g/m*3 9.08 C 0 km/h
Sensor: Nr:Datum:Temp:Abs-Feuchte:Windchill:Wind:
Aussen-T/F 676 11-10-2010 03:00:00 8.24 C 4.99 g/m*3 8.24 C 0 km/h
677 11-10-2010 04:00:00 7.58 C 5.1 g/m*3 7.58 C 0 km/h
678 11-10-2010 05:00:00 6.64 C 5.24 g/m*3 6.64 C 0 km/h
679 11-10-2010 06:00:00 5.72 C 5.32 g/m*3 5.72 C 0 km/h
680 11-10-2010 07:00:00 5.22 C 5.36 g/m*3 5.22 C 0 km/h
681 11-10-2010 08:00:00 4.96 C 5.39 g/m*3 4.96 C 0 km/h
682 11-10-2010 09:00:00 5.6 C 5.7 g/m*3 5.6 C 0 km/h
683 11-10-2010 10:00:00 7.12 C 6.11 g/m*3 7.12 C 0 km/h
684 11-10-2010 11:00:00 9.46 C 6.36 g/m*3 9.46 C 0 km/h
685 11-10-2010 12:00:00 11.62 C 6.45 g/m*3 11.62 C 0 km/h
686 11-10-2010 13:00:00 14.92 C 5.9 g/m*3 14.92 C 0 km/h
687 11-10-2010 14:00:00 17.48 C 5.45 g/m*3 17.48 C 0 km/h
688 11-10-2010 15:00:00 19.78 C 5.05 g/m*3 19.78 C 0 km/h
689 11-10-2010 16:00:00 20.96 C 4.61 g/m*3 20.96 C 0 km/h
690 11-10-2010 17:00:00 19.56 C 3.6 g/m*3 19.56 C 0 km/h
691 11-10-2010 18:00:00 16.12 C 3.98 g/m*3 16.12 C 0 km/h
692 11-10-2010 19:00:00 13.18 C 4.33 g/m*3 13.18 C 0 km/h
693 11-10-2010 20:00:00 11.32 C 4.82 g/m*3 11.32 C 0 km/h
694 11-10-2010 21:00:00 10.025 C 4.96 g/m*3 10.03 C 0 km/h
695 11-10-2010 22:00:00 9.2 C 4.84 g/m*3 9.2 C 0 km/h
696 11-10-2010 23:00:00 8.24 C 4.87 g/m*3 8.24 C 0 km/h
697 12-10-2010 00:00:00 7.16 C 5.01 g/m*3 7.16 C 0 km/h
698 12-10-2010 01:00:00 6.4 C 5.13 g/m*3 6.4 C 0 km/h
699 12-10-2010 02:00:00 5.74 C 5.24 g/m*3 5.74 C 0 km/h
700 12-10-2010 03:00:00 5.04 C 5.31 g/m*3 5.04 C 0 km/h
Sensor: Nr:Datum:Temp:Abs-Feuchte:Windchill:Wind:
Aussen-T/F 701 12-10-2010 04:00:00 4.42 C 5.34 g/m*3 4.42 C 0 km/h
702 12-10-2010 05:00:00 3.8 C 5.31 g/m*3 3.8 C 0 km/h
703 12-10-2010 06:00:00 3.46 C 5.26 g/m*3 3.46 C 0 km/h
704 12-10-2010 07:00:00 2.94 C 5.15 g/m*3 2.94 C 0 km/h
705 12-10-2010 08:00:00 3.56 C 5.52 g/m*3 3.56 C 0 km/h
706 12-10-2010 09:00:00 4.9 C 5.93 g/m*3 4.9 C 0 km/h
707 12-10-2010 10:00:00 5.82 C 6.07 g/m*3 5.82 C 0 km/h
708 12-10-2010 11:00:00 7.16 C 6.36 g/m*3 7.16 C 0 km/h
709 12-10-2010 12:00:00 9.56 C 6.18 g/m*3 9.56 C 0 km/h
710 12-10-2010 13:00:00 12.58 C 5.72 g/m*3 12.58 C 0 km/h
711 12-10-2010 14:00:00 15.26 C 5.65 g/m*3 15.26 C 0 km/h
712 12-10-2010 15:00:00 16.94 C 5.42 g/m*3 16.94 C 0 km/h
713 12-10-2010 16:00:00 17.66 C 5.42 g/m*3 17.66 C 0 km/h
714 12-10-2010 17:00:00 17.22 C 4.57 g/m*3 17.22 C 0 km/h
715 12-10-2010 18:00:00 14.5 C 5.65 g/m*3 14.5 C 0 km/h
716 12-10-2010 19:00:00 11.42 C 6.45 g/m*3 11.42 C 0 km/h
717 12-10-2010 20:00:00 9.84 C 6.47 g/m*3 9.84 C 0 km/h
718 12-10-2010 21:00:00 8.36 C 6.26 g/m*3 8.36 C 0 km/h
719 12-10-2010 22:00:00 7.74 C 6.15 g/m*3 7.74 C 0 km/h
720 12-10-2010 23:00:00 7.78 C 6 g/m*3 7.78 C 0 km/h
721 13-10-2010 00:00:00 7.6 C 5.86 g/m*3 7.6 C 0 km/h
722 13-10-2010 01:00:00 7.02 C 5.82 g/m*3 7.02 C 0 km/h
723 13-10-2010 02:00:00 6.8 C 5.83 g/m*3 6.8 C 0 km/h
724 13-10-2010 03:00:00 6.44 C 5.69 g/m*3 6.44 C 0 km/h
725 13-10-2010 04:00:00 6.2 C 5.59 g/m*3 6.2 C 0 km/h
Sensor: Nr:Datum:Temp:Abs-Feuchte:Windchill:Wind:
Aussen-T/F 726 13-10-2010 05:00:00 6.1 C 5.6 g/m*3 6.1 C 0 km/h
727 13-10-2010 06:00:00 5.84 C 5.6 g/m*3 5.84 C 0 km/h
728 13-10-2010 07:00:00 5.42 C 5.53 g/m*3 5.42 C 0 km/h
729 13-10-2010 08:00:00 5.62 C 5.49 g/m*3 5.62 C 0 km/h
730 13-10-2010 09:00:00 5.86 C 5.45 g/m*3 5.86 C 0 km/h
731 13-10-2010 10:00:00 6.66 C 5.3 g/m*3 6.66 C 0 km/h
732 13-10-2010 11:00:00 7.04 C 5.08 g/m*3 7.04 C 0 km/h
733 13-10-2010 12:00:00 8.14 C 5.06 g/m*3 8.14 C 0 km/h
734 13-10-2010 13:00:00 8.8 C 4.89 g/m*3 8.8 C 0 km/h
735 13-10-2010 14:00:00 9.8 C 4.95 g/m*3 9.8 C 0 km/h
736 13-10-2010 15:00:00 11.78 C 4.94 g/m*3 11.78 C 0 km/h
737 13-10-2010 16:00:00 12.06 C 5.01 g/m*3 12.06 C 0 km/h
738 13-10-2010 17:00:00 12.34 C 5.23 g/m*3 12.34 C 0 km/h
739 13-10-2010 18:00:00 9.94 C 5.5 g/m*3 9.94 C 0 km/h
740 13-10-2010 19:00:00 7.48 C 5.76 g/m*3 7.48 C 0 km/h
741 13-10-2010 20:00:00 6.96 C 5.81 g/m*3 6.96 C 0 km/h
742 13-10-2010 21:00:00 5.82 C 5.72 g/m*3 5.82 C 0 km/h
743 13-10-2010 22:00:00 5.16 C 5.73 g/m*3 5.16 C 0 km/h
744 13-10-2010 23:00:00 4.52 C 5.61 g/m*3 4.52 C 0 km/h

Maximal/Minimal-Werte vom 13.09.2010 - 13.10.2010

Sensor Min Max Avg
Temp
(Aussen-T/F)
2.6 °C
12-10-2010  07:48:01
27.6 °C
22-09-2010  16:42:02
13.61 °C
Abs-Feuchte
(Aussen-T/F)
3.6 g/m*3
11-10-2010  17:00:00
13.01 g/m*3
05-10-2010  11:00:00
8.28 g/m*3
Windchill
(Aussen-T/F)
2.94 C
12-10-2010  07:00:00
27.32 C
22-09-2010  16:00:00
13.59 C

Die Daten stammen von einer Davis Vantage Pro 2 Wetter-Station und werden unter Linux mit der Software wview2wettercgi und aufbereitet. Alle Angaben erfolgen ohne Gewähr für ihre Vollständigkeit oder Richtigkeit.
Kontakt: Rainer Krienke krienke@uni-koblenz.de . Meine Webseiten an der Uni Koblenz oder privat.
Version: $Revision: 0.78 $